This is the latest recevied weather packets stored in our database for station/object JH0KSP-13. If no packets are shown the sender has not sent any weather packets the latest 10 day(s).
| Time | Temp. | Humidity | Pressure | Rain* | Wind** | Luminosity | Snow |
|---|---|---|---|---|---|---|---|
| 1778202609 | 21.11° C | 74% | 1008.6 hPa | 0 mm | - | - | - |
| 1778202416 | 21.11° C | 75% | 1008.6 hPa | 0 mm | - | - | - |
| 1778202009 | 21.11° C | 75% | 1008.5 hPa | 0 mm | - | - | - |
| 1778201408 | 21.11° C | 77% | 1008.8 hPa | 0 mm | - | - | - |
| 1778201217 | 21.11° C | 79% | 1008.6 hPa | 0 mm | - | - | - |
| 1778200208 | 20° C | 84% | 1008.5 hPa | 0 mm | - | - | - |
| 1778200016 | 20° C | 86% | 1008.6 hPa | 0 mm | - | - | - |
| 1778198817 | 20° C | 90% | 1009 hPa | 0 mm | - | - | - |
| 1778198410 | 18.89° C | 94% | 1009.1 hPa | 0 mm | - | - | - |
| 1778197616 | 18.89° C | 96% | 1009.4 hPa | 0 mm | - | - | - |
| 1778196417 | 17.78° C | 99% | 1009.4 hPa | 0 mm | - | - | - |
| 1778195215 | 17.22° C | 100% | 1009.4 hPa | 0 mm | - | - | - |
| 1778194015 | 17.22° C | 100% | 1009.6 hPa | 0 mm | - | - | - |
| 1778193609 | 17.22° C | 100% | 1009.8 hPa | 0 mm | - | - | - |
| 1778193009 | 17.22° C | 100% | 1009.8 hPa | 0 mm | - | - | - |
| 1778192816 | 17.22° C | 100% | 1009.9 hPa | 0 mm | - | - | - |
| 1778192410 | 17.22° C | 100% | 1010 hPa | 0 mm | - | - | - |
| 1778191809 | 17.22° C | 100% | 1010 hPa | 0 mm | - | - | - |
| 1778191616 | 17.22° C | 100% | 1010.1 hPa | 0 mm | - | - | - |
| 1778190608 | 16.11° C | 100% | 1009.7 hPa | 0 mm | - | - | - |
| 1778190417 | 16.11° C | 100% | 1009.8 hPa | 0 mm | - | - | - |
| 1778190008 | 16.11° C | 98% | 1010 hPa | 0 mm | - | - | - |
| 1778189409 | 16.11° C | 98% | 1009.9 hPa | 0 mm | - | - | - |
| 1778189215 | 16.11° C | 98% | 1009.9 hPa | 0 mm | - | - | - |
| 1778188808 | 16.11° C | 98% | 1009.5 hPa | 0 mm | - | - | - |
* Rain latest hour (hover to see other rain measurements)
** Current wind speed in m/s (hover to see current wind gust speed)